Regional Weather Roundup
Issued by NWS

Home | Current Version | Previous Version | Graphics & Text | Print | Product List | Glossary On
Versions: 1 2 3 4 5 6 7 8 9 10 11 12 13 14 15 16 17 18 19 20 21 22 23 24 25 26 27 28 29 30 31 32 33 34 35 36 37 38 39 40 41 42 43 44 45 46 47 48 49 50
000
ASUS43 KOAX 212010
RWRNE

WEATHER ROUNDUP FOR NEBRASKA
NATIONAL WEATHER SERVICE OMAHA NE
200 PM CST SUN DEC 21 2014

NOTES: SATELLITE DATA IS BEING USED TO AUGMENT CLOUD COVER ABOVE
       12000 FEET.
       "FAIR" INDICATES FEW OR NO CLOUDS BELOW 12,000 FEET WITH NO
       SIGNIFICANT WEATHER AND/OR OBSTRUCTIONS TO VISIBILITY.

  * THESE STATIONS DO NOT REPORT WEATHER SUCH AS RAIN...SNOW OR FOG.

NEZ001>004-019>022-054>056-212100-
NEBRASKA PANHANDLE

CITY           SKY/WX    TMP DP  RH WIND       PRES   REMARKS
SCOTTSBLUFF    CLOUDY    45  31  58 W14       29.48F
ALLIANCE       CLOUDY    41  28  60 SW15      29.46F
CHADRON        CLOUDY    45  32  60 W5        29.41F
KIMBALL        CLOUDY    46  25  43 W15G29    29.52F
SIDNEY         CLOUDY    41  27  57 W10       29.55F
$$

NEZ057>060-069>072-079>082-212100-
SOUTHWEST NEBRASKA

CITY           SKY/WX    TMP DP  RH WIND       PRES   REMARKS
NORTH PLATTE   CLOUDY    43  31  62 SW7       29.56F
IMPERIAL       CLOUDY    47  28  47 S7        29.56F
LEXINGTON      PTSUNNY   38  35  88 S17       29.60F WCI  28
MCCOOK         PTSUNNY   42  32  67 S13       29.59F
OGALLALA       CLOUDY    34  28  79 W3        29.54F
$$

NEZ005>010-023>029-035>040-094-212100-
NORTH CENTRAL NEBRASKA

CITY           SKY/WX    TMP DP  RH WIND       PRES   REMARKS
VALENTINE      PTSUNNY   44  30  57 S12       29.46F
AINSWORTH      MOSUNNY   39  31  71 S12       29.48F WCI  32
BROKEN BOW     CLOUDY    42  34  73 S12G24    29.56F
O`NEILL        SUNNY     38  35  86 S14       29.55F WCI  30
THEDFORD       CLOUDY    43  32  65 S14       29.52F
$$

NEZ041-046>049-061>064-073>077-083>087-212100-
SOUTH CENTRAL NEBRASKA

CITY           SKY/WX    TMP DP  RH WIND       PRES   REMARKS
GRAND ISLAND   CLOUDY    40  38  93 S21G28    29.67F FOG     WCI  30
AURORA         CLOUDY    40  40 100 S16       29.67F FOG     WCI  32
HASTINGS       CLOUDY    41  37  86 S13G23    29.65F FOG
HEBRON         CLOUDY    41  39  90 S10G16    29.73F FOG
HOLDREGE       CLOUDY    38  37  95 S15       29.62F FOG     WCI  30
KEARNEY *      CLOUDY    37  36  93 SE16      29.63F WCI  28
YORK           CLOUDY    39  39 100 S16G23    29.70F FOG     WCI  30
$$

NEZ011>018-030>034-042>045-212100-
NORTHEAST NEBRASKA

CITY           SKY/WX    TMP DP  RH WIND       PRES   REMARKS
NORFOLK        CLOUDY    39  36  89 S18G28    29.65F FOG     WCI  30
ALBION         CLOUDY    37  34  92 S15       29.65F FOG     WCI  27
BLAIR          CLOUDY    42  38  89 S23G31    29.72F FOG
COLUMBUS *     CLOUDY    39  36  87 S16G22    29.70F WCI  30
FREMONT        CLOUDY    42  39  89 S20       29.73F
TEKAMAH        CLOUDY    42  39  89 S21       29.73F
WAYNE          CLOUDY    39  37  91 S21       29.67F WCI  29
$$

NEZ050>053-065>068-078-088>093-212100-
SOUTHEAST NEBRASKA

CITY           SKY/WX    TMP DP  RH WIND       PRES   REMARKS
LINCOLN        CLOUDY    42  38  85 S20       29.75F
OMAHA EPPLEY   CLOUDY    42  39  89 S22       29.77F
BEATRICE       CLOUDY    41  38  90 S13       29.76F
FALLS CITY     CLOUDY    42  38  85 S9        29.81F
NEBRASKA CITY  CLOUDY    40  40  97 S18G25    29.79F WCI  31
PLATTSMOUTH    CLOUDY    40  38  91 S18G24    29.77F FOG     WCI  31
$$

NEZ044-045-051>053-067-212100-
OMAHA AREA

CITY           SKY/WX    TMP DP  RH WIND       PRES   REMARKS
OMAHA EPPLEY   CLOUDY    42  39  89 S22       29.77F
BLAIR          CLOUDY    42  38  89 S23G31    29.72F FOG
FREMONT        CLOUDY    42  39  89 S20       29.73F
MILLARD        CLOUDY    42  38  86 S13G18    29.75F
OFFUTT AFB     CLOUDY    42  38  89 S10       29.76F
PLATTSMOUTH    CLOUDY    40  38  91 S18G24    29.77F FOG     WCI  31
WAHOO          CLOUDY    42  37  85 S20G25    29.73F
$$


USA.gov is the U.S. government's official web portal to all federal, state and local government web resources and services.